2017-04-30T23:52:00.000Z,48.0,93.0,999.9
2017-05-01T05:52:00.000Z,46.0,93.0,999.0
2017-05-01T06:52:00.000Z,46.0,93.0,997.7
2017-05-01T07:52:00.000Z,46.0,93.0,996.8
2017-05-01T08:52:00.000Z,45.0,97.0,996.1
2017-05-01T09:52:00.000Z,45.0,93.0,995.7
2017-05-01T10:52:00.000Z,47.0,83.0,995.6
2017-05-01T11:52:00.000Z,47.0,83.0,995.8
2017-05-01T12:52:00.000Z,47.0,86.0,996.0
2017-05-01T13:52:00.000Z,48.0,83.0,995.6
2017-05-01T14:52:00.000Z,49.0,80.0,995.4
2017-05-01T15:52:00.000Z,50.0,74.0,995.5
2017-05-01T16:52:00.000Z,52.0,69.0,995.5
2017-05-01T17:52:00.000Z,52.0,75.0,995.6
2017-05-01T18:52:00.000Z,50.0,83.0,996.3
2017-05-01T19:52:00.000Z,48.0,-1e31,997.2
2017-05-01T20:52:00.000Z,46.0,-1e31,998.4
2017-05-01T21:52:00.000Z,47.0,83.0,999.1
2017-05-01T22:52:00.000Z,46.0,-1e31,1000.1
2017-05-01T23:52:00.000Z,46.0,-1e31,1000.7
2017-05-02T00:52:00.000Z,45.0,-1e31,1001.4
2017-05-02T01:52:00.000Z,44.0,100.0,1002.4
2017-05-02T02:52:00.000Z,43.0,82.0,1003.1
2017-05-02T03:52:00.000Z,44.0,73.0,1002.9
2017-05-02T04:52:00.000Z,44.0,76.0,1003.5
2017-05-02T05:52:00.000Z,45.0,77.0,1003.9
2017-05-02T06:52:00.000Z,44.0,79.0,1004.4
2017-05-02T07:52:00.000Z,44.0,76.0,1004.8
2017-05-02T08:52:00.000Z,42.0,79.0,1005.8
2017-05-02T09:52:00.000Z,41.0,79.0,1006.5
2017-05-02T10:52:00.000Z,41.0,76.0,1007.2
2017-05-02T11:52:00.000Z,41.0,76.0,1008.5
2017-05-02T12:52:00.000Z,43.0,74.0,1009.3
2017-05-02T13:52:00.000Z,46.0,66.0,1009.6
2017-05-02T14:52:00.000Z,49.0,61.0,1010.4
2017-05-02T15:52:00.000Z,51.0,54.0,1011.5
2017-05-02T16:52:00.000Z,53.0,52.0,1012.1
2017-05-02T17:52:00.000Z,56.0,47.0,1012.5
2017-05-02T18:52:00.000Z,58.0,46.0,1013.0
2017-05-02T19:52:00.000Z,58.0,50.0,1013.8
2017-05-02T20:52:00.000Z,60.0,46.0,1014.1
2017-05-02T21:52:00.000Z,62.0,43.0,1014.3
2017-05-02T22:52:00.000Z,61.0,41.0,1014.7
2017-05-02T23:52:00.000Z,61.0,41.0,1015.1
2017-05-03T00:52:00.000Z,58.0,46.0,1015.9
2017-05-03T01:52:00.000Z,53.0,57.0,1017.0
2017-05-03T02:52:00.000Z,51.0,61.0,1017.9
2017-05-03T03:52:00.000Z,47.0,71.0,1018.8
2017-05-03T04:52:00.000Z,42.0,82.0,1019.2
2017-05-03T05:52:00.000Z,40.0,86.0,1019.8
2017-05-03T06:52:00.000Z,38.0,89.0,1019.8
2017-05-03T07:52:00.000Z,37.0,93.0,1019.0
2017-05-03T08:52:00.000Z,37.0,86.0,1019.8
2017-05-03T09:52:00.000Z,36.0,89.0,1019.3
2017-05-03T10:52:00.000Z,35.0,93.0,1019.9
2017-05-03T11:52:00.000Z,37.0,89.0,1020.4
2017-05-03T12:52:00.000Z,43.0,86.0,1021.0
2017-05-03T13:52:00.000Z,48.0,80.0,1021.6
2017-05-03T14:52:00.000Z,52.0,69.0,1021.3
2017-05-03T15:52:00.000Z,54.0,59.0,1021.4
2017-05-03T16:52:00.000Z,55.0,62.0,1021.5
2017-05-03T17:52:00.000Z,56.0,55.0,1021.0
2017-05-03T18:52:00.000Z,57.0,49.0,1020.4
2017-05-03T19:52:00.000Z,57.0,47.0,1020.5
2017-05-03T20:52:00.000Z,58.0,44.0,1019.5
2017-05-03T21:52:00.000Z,58.0,46.0,1019.9
2017-05-03T22:52:00.000Z,57.0,47.0,1020.3
2017-05-03T23:52:00.000Z,56.0,47.0,1020.0
2017-05-04T00:52:00.000Z,54.0,53.0,1019.8
2017-05-04T01:52:00.000Z,53.0,55.0,1019.8
2017-05-04T02:52:00.000Z,50.0,63.0,1019.9
2017-05-04T03:52:00.000Z,47.0,71.0,1019.7
2017-05-04T04:52:00.000Z,42.0,82.0,1019.4
2017-05-04T05:52:00.000Z,41.0,82.0,1019.4
2017-05-04T06:52:00.000Z,41.0,82.0,1018.8
2017-05-04T07:52:00.000Z,40.0,86.0,1018.1
2017-05-04T08:52:00.000Z,41.0,82.0,1017.7
2017-05-04T09:52:00.000Z,43.0,80.0,1016.8
2017-05-04T10:52:00.000Z,41.0,82.0,1017.4
2017-05-04T11:52:00.000Z,41.0,79.0,1017.7
2017-05-04T12:52:00.000Z,49.0,66.0,1017.5
2017-05-04T13:52:00.000Z,53.0,57.0,1017.0
2017-05-04T14:52:00.000Z,58.0,50.0,1016.6
2017-05-04T15:52:00.000Z,61.0,46.0,1016.4
2017-05-04T16:52:00.000Z,64.0,40.0,1015.9
2017-05-04T17:52:00.000Z,66.0,36.0,1015.2
2017-05-04T18:52:00.000Z,67.0,33.0,1014.4
2017-05-04T19:52:00.000Z,68.0,31.0,1013.8
2017-05-04T20:52:00.000Z,68.0,33.0,1013.2
2017-05-04T21:52:00.000Z,67.0,32.0,1013.3
2017-05-04T22:52:00.000Z,68.0,33.0,1013.3
2017-05-04T23:52:00.000Z,67.0,33.0,1013.2
2017-05-05T00:52:00.000Z,66.0,33.0,1013.5
2017-05-05T01:52:00.000Z,64.0,37.0,1014.0
2017-05-05T02:52:00.000Z,62.0,41.0,1013.9
2017-05-05T03:52:00.000Z,60.0,41.0,1013.8
2017-05-05T04:52:00.000Z,58.0,42.0,1013.7
2017-05-05T05:52:00.000Z,55.0,49.0,1013.7
2017-05-05T06:52:00.000Z,54.0,51.0,1013.4
2017-05-05T07:52:00.000Z,52.0,55.0,1013.0
2017-05-05T08:52:00.000Z,50.0,59.0,1013.7
2017-05-05T09:52:00.000Z,49.0,61.0,1014.1
2017-05-05T10:52:00.000Z,49.0,61.0,1014.3
2017-05-05T11:52:00.000Z,50.0,63.0,1014.6
2017-05-05T12:52:00.000Z,53.0,57.0,1014.6
2017-05-05T13:52:00.000Z,57.0,49.0,1014.5
2017-05-05T14:52:00.000Z,61.0,46.0,1014.2
2017-05-05T15:52:00.000Z,63.0,45.0,1014.0
2017-05-05T16:52:00.000Z,66.0,39.0,1013.7
2017-05-05T17:52:00.000Z,69.0,38.0,1013.0
2017-05-05T18:52:00.000Z,70.0,30.0,1012.4
2017-05-05T19:52:00.000Z,72.0,29.0,1011.7
2017-05-05T20:52:00.000Z,73.0,26.0,1011.1
2017-05-05T21:52:00.000Z,73.0,24.0,1010.6
2017-05-05T22:52:00.000Z,74.0,22.0,1010.0
2017-05-05T23:52:00.000Z,72.0,25.0,1009.6
2017-05-06T00:52:00.000Z,67.0,35.0,1009.2
2017-05-06T01:52:00.000Z,58.0,56.0,1009.0
2017-05-06T02:52:00.000Z,58.0,51.0,1008.1
2017-05-06T03:52:00.000Z,58.0,48.0,1007.0
2017-05-06T04:52:00.000Z,57.0,55.0,1005.9
2017-05-06T05:52:00.000Z,55.0,57.0,1004.9
2017-05-06T06:52:00.000Z,61.0,46.0,1004.1
2017-05-06T07:52:00.000Z,63.0,43.0,1004.6
2017-05-06T08:52:00.000Z,60.0,50.0,1005.1
2017-05-06T09:52:00.000Z,52.0,66.0,1007.6
2017-05-06T10:52:00.000Z,49.0,80.0,1009.0
2017-05-06T11:52:00.000Z,50.0,77.0,1010.4
2017-05-06T12:52:00.000Z,53.0,72.0,1011.7
2017-05-06T13:52:00.000Z,56.0,67.0,1012.3
2017-05-06T14:52:00.000Z,60.0,58.0,1012.6
2017-05-06T15:52:00.000Z,62.0,56.0,1012.9
2017-05-06T16:52:00.000Z,66.0,42.0,1013.0
2017-05-06T17:52:00.000Z,66.0,39.0,1012.7
2017-05-06T18:52:00.000Z,67.0,35.0,1012.4
2017-05-06T19:52:00.000Z,68.0,27.0,1012.4
2017-05-06T20:52:00.000Z,69.0,30.0,1012.0
2017-05-06T21:52:00.000Z,70.0,26.0,1012.0
2017-05-06T22:52:00.000Z,69.0,27.0,1012.2
2017-05-06T23:52:00.000Z,68.0,27.0,1012.3
2017-05-07T00:52:00.000Z,64.0,33.0,1012.9
2017-05-07T01:52:00.000Z,62.0,35.0,1013.2
2017-05-07T02:52:00.000Z,54.0,57.0,1014.1
2017-05-07T03:52:00.000Z,50.0,68.0,1014.3
2017-05-07T04:52:00.000Z,48.0,74.0,1014.5
2017-05-07T05:52:00.000Z,46.0,77.0,1015.1
2017-05-07T06:52:00.000Z,45.0,80.0,1015.3
2017-05-07T07:52:00.000Z,44.0,79.0,1015.5
2017-05-07T08:52:00.000Z,44.0,79.0,1015.5
2017-05-07T09:52:00.000Z,42.0,82.0,1016.3
2017-05-07T10:52:00.000Z,46.0,73.0,1016.7
2017-05-07T11:52:00.000Z,46.0,68.0,1017.3
2017-05-07T12:52:00.000Z,49.0,66.0,1017.9
2017-05-07T13:52:00.000Z,52.0,57.0,1018.4
2017-05-07T14:52:00.000Z,57.0,45.0,1018.5
2017-05-07T15:52:00.000Z,61.0,36.0,1018.5
2017-05-07T16:52:00.000Z,64.0,35.0,1018.3
2017-05-07T17:52:00.000Z,66.0,36.0,1017.8
2017-05-07T18:52:00.000Z,68.0,35.0,1017.4
2017-05-07T19:52:00.000Z,67.0,35.0,1017.0
2017-05-07T20:52:00.000Z,69.0,38.0,1016.3
2017-05-07T21:52:00.000Z,70.0,31.0,1016.0
2017-05-07T22:52:00.000Z,70.0,34.0,1015.7
2017-05-07T23:52:00.000Z,68.0,36.0,1015.4
2017-05-08T00:52:00.000Z,67.0,35.0,1015.2
2017-05-08T01:52:00.000Z,63.0,41.0,1015.4
2017-05-08T02:52:00.000Z,61.0,44.0,1016.1
2017-05-08T03:52:00.000Z,56.0,55.0,1016.5
2017-05-08T04:52:00.000Z,54.0,59.0,1016.7
2017-05-08T05:52:00.000Z,52.0,66.0,1017.0
2017-05-08T06:52:00.000Z,50.0,71.0,1017.0
2017-05-08T07:52:00.000Z,50.0,71.0,1017.0
2017-05-08T08:52:00.000Z,48.0,80.0,1017.1
2017-05-08T09:52:00.000Z,52.0,64.0,1017.2
2017-05-08T10:52:00.000Z,52.0,61.0,1017.4
2017-05-08T11:52:00.000Z,51.0,69.0,1018.1
2017-05-08T12:52:00.000Z,53.0,66.0,1018.0
2017-05-08T13:52:00.000Z,54.0,64.0,1018.1
2017-05-08T14:52:00.000Z,57.0,58.0,1017.6
2017-05-08T15:52:00.000Z,61.0,52.0,1017.2
2017-05-08T16:52:00.000Z,66.0,47.0,1016.5
2017-05-08T17:52:00.000Z,70.0,46.0,1015.2
2017-05-08T18:52:00.000Z,72.0,43.0,1015.1
2017-05-08T19:52:00.000Z,72.0,48.0,1014.9
2017-05-08T20:52:00.000Z,72.0,46.0,1013.8
2017-05-08T21:52:00.000Z,74.0,46.0,1013.0
2017-05-08T22:52:00.000Z,74.0,48.0,1012.7
2017-05-08T23:52:00.000Z,74.0,48.0,1012.3
2017-05-09T00:52:00.000Z,71.0,53.0,1011.7
2017-05-09T01:52:00.000Z,70.0,55.0,1011.5
2017-05-09T02:52:00.000Z,68.0,59.0,1011.4
2017-05-09T03:52:00.000Z,67.0,63.0,1011.2
2017-05-09T04:52:00.000Z,65.0,68.0,1010.8
2017-05-09T05:52:00.000Z,64.0,70.0,1010.9
2017-05-09T06:52:00.000Z,63.0,73.0,1009.0
2017-05-09T07:52:00.000Z,63.0,76.0,1008.4
2017-05-09T08:52:00.000Z,61.0,81.0,1009.4
2017-05-09T09:52:00.000Z,54.0,80.0,1009.7
2017-05-09T10:52:00.000Z,51.0,83.0,1010.3
2017-05-09T11:52:00.000Z,51.0,80.0,1011.0
2017-05-09T12:52:00.000Z,52.0,77.0,1011.4
2017-05-09T13:52:00.000Z,56.0,75.0,1012.3
2017-05-09T14:52:00.000Z,60.0,70.0,1012.6
2017-05-09T15:52:00.000Z,62.0,70.0,1013.1
2017-05-09T16:52:00.000Z,63.0,70.0,1012.8
2017-05-09T17:52:00.000Z,66.0,63.0,1013.6
2017-05-09T18:52:00.000Z,69.0,63.0,1013.2
2017-05-09T19:52:00.000Z,71.0,61.0,1012.7
2017-05-09T20:52:00.000Z,73.0,57.0,1012.1
2017-05-09T21:52:00.000Z,73.0,57.0,1011.7
2017-05-09T22:52:00.000Z,73.0,57.0,1011.8
2017-05-09T23:52:00.000Z,73.0,57.0,1011.5
2017-05-10T00:52:00.000Z,69.0,59.0,1011.7
2017-05-10T01:52:00.000Z,65.0,68.0,1012.1
2017-05-10T02:52:00.000Z,63.0,73.0,1012.6
2017-05-10T03:52:00.000Z,62.0,75.0,1012.9
2017-05-10T04:52:00.000Z,61.0,75.0,1013.2
2017-05-10T05:52:00.000Z,60.0,78.0,1013.4
2017-05-10T06:52:00.000Z,60.0,78.0,1012.8
2017-05-10T07:52:00.000Z,58.0,84.0,1013.0
2017-05-10T08:52:00.000Z,57.0,87.0,1013.0
2017-05-10T09:52:00.000Z,58.0,84.0,1012.8
2017-05-10T10:52:00.000Z,57.0,87.0,1012.8
2017-05-10T11:52:00.000Z,58.0,87.0,1013.1
2017-05-10T12:52:00.000Z,59.0,83.0,1013.5
2017-05-10T13:52:00.000Z,60.0,80.0,1013.1
2017-05-10T14:52:00.000Z,59.0,90.0,1015.1
2017-05-10T15:52:00.000Z,59.0,90.0,1012.8
2017-05-10T16:52:00.000Z,61.0,87.0,1012.3
2017-05-10T17:52:00.000Z,63.0,84.0,1011.1
2017-05-10T18:52:00.000Z,64.0,87.0,1010.5
2017-05-10T19:52:00.000Z,64.0,84.0,1009.5
2017-05-10T20:52:00.000Z,62.0,90.0,1011.0
2017-05-10T21:52:00.000Z,62.0,90.0,1009.4
2017-05-10T22:52:00.000Z,62.0,90.0,1010.2
2017-05-10T23:52:00.000Z,63.0,90.0,1010.1
2017-05-11T00:52:00.000Z,63.0,87.0,1010.6
2017-05-11T01:52:00.000Z,63.0,87.0,1011.5
2017-05-11T02:52:00.000Z,62.0,90.0,1012.7
2017-05-11T03:52:00.000Z,61.0,90.0,1012.6
2017-05-11T04:52:00.000Z,60.0,93.0,1012.5
2017-05-11T05:52:00.000Z,60.0,90.0,1013.6
2017-05-11T06:52:00.000Z,59.0,90.0,1013.3
2017-05-11T07:52:00.000Z,59.0,90.0,1013.0
2017-05-11T08:52:00.000Z,59.0,90.0,1013.5
2017-05-11T09:52:00.000Z,58.0,90.0,1013.7
2017-05-11T10:52:00.000Z,57.0,93.0,1013.9
2017-05-11T11:52:00.000Z,58.0,90.0,1015.3
2017-05-11T12:52:00.000Z,59.0,87.0,1015.7
2017-05-11T13:52:00.000Z,61.0,81.0,1015.1
2017-05-11T14:52:00.000Z,64.0,70.0,1015.6
2017-05-11T15:52:00.000Z,66.0,68.0,1015.4
2017-05-11T16:52:00.000Z,68.0,63.0,1015.8
2017-05-11T17:52:00.000Z,69.0,59.0,1015.4
2017-05-11T18:52:00.000Z,72.0,57.0,1015.3
2017-05-11T19:52:00.000Z,73.0,50.0,1015.0
2017-05-11T20:52:00.000Z,71.0,51.0,1014.4
2017-05-11T21:52:00.000Z,73.0,51.0,1013.8
2017-05-11T22:52:00.000Z,73.0,50.0,1012.6
2017-05-11T23:52:00.000Z,70.0,51.0,1013.5
2017-05-12T00:52:00.000Z,68.0,55.0,1014.2
2017-05-12T01:52:00.000Z,64.0,75.0,1014.5
2017-05-12T02:52:00.000Z,68.0,57.0,1015.1
2017-05-12T03:52:00.000Z,67.0,51.0,1015.1
2017-05-12T04:52:00.000Z,62.0,62.0,1015.1
2017-05-12T05:52:00.000Z,60.0,65.0,1015.1
2017-05-12T06:52:00.000Z,60.0,62.0,1014.9
2017-05-12T07:52:00.000Z,57.0,67.0,1014.5
2017-05-12T08:52:00.000Z,56.0,67.0,1014.6
2017-05-12T09:52:00.000Z,55.0,69.0,1014.6
2017-05-12T10:52:00.000Z,54.0,72.0,1014.8
2017-05-12T11:52:00.000Z,53.0,74.0,1015.4
2017-05-12T12:52:00.000Z,58.0,65.0,1015.7
2017-05-12T13:52:00.000Z,62.0,58.0,1015.9
2017-05-12T14:52:00.000Z,66.0,54.0,1015.8
2017-05-12T15:52:00.000Z,69.0,51.0,1015.8
2017-05-12T16:52:00.000Z,70.0,44.0,1015.7
2017-05-12T17:52:00.000Z,72.0,41.0,1015.5
2017-05-12T18:52:00.000Z,73.0,37.0,1015.1
2017-05-12T19:52:00.000Z,74.0,36.0,1014.6
2017-05-12T20:52:00.000Z,74.0,28.0,1014.3
2017-05-12T21:52:00.000Z,74.0,26.0,1014.0
2017-05-12T22:52:00.000Z,75.0,23.0,1013.8
2017-05-12T23:52:00.000Z,72.0,28.0,1013.9
2017-05-13T00:52:00.000Z,70.0,30.0,1014.1
2017-05-13T01:52:00.000Z,68.0,33.0,1014.3
2017-05-13T02:52:00.000Z,59.0,58.0,1014.6
2017-05-13T03:52:00.000Z,58.0,62.0,1014.4
2017-05-13T04:52:00.000Z,55.0,72.0,1014.3
2017-05-13T05:52:00.000Z,52.0,80.0,1014.1
2017-05-13T06:52:00.000Z,51.0,80.0,1013.6
2017-05-13T07:52:00.000Z,52.0,77.0,1013.5
2017-05-13T08:52:00.000Z,51.0,80.0,1013.5
2017-05-13T09:52:00.000Z,49.0,86.0,1013.8
2017-05-13T10:52:00.000Z,50.0,80.0,1014.2
2017-05-13T11:52:00.000Z,53.0,69.0,1014.7
2017-05-13T12:52:00.000Z,60.0,65.0,1014.5
2017-05-13T13:52:00.000Z,66.0,54.0,1014.5
2017-05-13T14:52:00.000Z,72.0,41.0,1014.4
2017-05-13T15:52:00.000Z,75.0,39.0,1014.0
2017-05-13T16:52:00.000Z,78.0,35.0,1013.8
2017-05-13T17:52:00.000Z,80.0,34.0,1013.1
2017-05-13T18:52:00.000Z,81.0,30.0,1012.4
2017-05-13T19:52:00.000Z,82.0,32.0,1011.9
2017-05-13T20:52:00.000Z,82.0,31.0,1011.4
2017-05-13T21:52:00.000Z,82.0,31.0,1011.0
2017-05-13T22:52:00.000Z,81.0,32.0,1010.5
2017-05-13T23:52:00.000Z,80.0,33.0,1010.4
2017-05-14T00:52:00.000Z,76.0,39.0,1010.3
2017-05-14T01:52:00.000Z,72.0,44.0,1010.4
2017-05-14T02:52:00.000Z,65.0,61.0,1010.9
2017-05-14T03:52:00.000Z,65.0,59.0,1011.2
2017-05-14T04:52:00.000Z,62.0,67.0,1011.5
2017-05-14T05:52:00.000Z,59.0,75.0,1011.7
2017-05-14T06:52:00.000Z,58.0,75.0,1011.4
2017-05-14T07:52:00.000Z,63.0,63.0,1011.2
2017-05-14T08:52:00.000Z,58.0,72.0,1011.3
2017-05-14T09:52:00.000Z,58.0,75.0,1011.4
2017-05-14T10:52:00.000Z,53.0,86.0,1012.0
2017-05-14T11:52:00.000Z,58.0,78.0,1012.6
2017-05-14T12:52:00.000Z,64.0,68.0,1012.6
2017-05-14T13:52:00.000Z,70.0,59.0,1012.8
2017-05-14T14:52:00.000Z,74.0,48.0,1012.5
2017-05-14T15:52:00.000Z,77.0,43.0,1012.1
2017-05-14T16:52:00.000Z,79.0,39.0,1012.0
2017-05-14T17:52:00.000Z,79.0,38.0,1010.7
2017-05-14T18:52:00.000Z,82.0,37.0,1010.3
2017-05-14T19:52:00.000Z,82.0,34.0,1009.8
2017-05-14T20:52:00.000Z,81.0,38.0,1009.3
2017-05-14T21:52:00.000Z,83.0,37.0,1009.1
2017-05-14T22:52:00.000Z,80.0,42.0,1009.0
2017-05-14T23:52:00.000Z,80.0,41.0,1008.6
2017-05-15T00:52:00.000Z,77.0,45.0,1009.0
2017-05-15T01:52:00.000Z,73.0,53.0,1009.5
2017-05-15T02:52:00.000Z,69.0,61.0,1010.2
2017-05-15T03:52:00.000Z,69.0,59.0,1010.9
2017-05-15T04:52:00.000Z,67.0,63.0,1011.3
2017-05-15T05:52:00.000Z,67.0,66.0,1011.2
2017-05-15T06:52:00.000Z,69.0,61.0,1011.4
2017-05-15T07:52:00.000Z,65.0,63.0,1011.6
2017-05-15T08:52:00.000Z,63.0,68.0,1011.6
2017-05-15T09:52:00.000Z,62.0,67.0,1011.2
2017-05-15T10:52:00.000Z,61.0,72.0,1011.9
2017-05-15T11:52:00.000Z,61.0,72.0,1012.3
2017-05-15T12:52:00.000Z,64.0,70.0,1012.3
2017-05-15T13:52:00.000Z,67.0,66.0,1012.1
2017-05-15T14:52:00.000Z,74.0,60.0,1011.3
2017-05-15T15:52:00.000Z,79.0,58.0,1010.7
2017-05-15T16:52:00.000Z,82.0,55.0,1010.5
2017-05-15T17:52:00.000Z,84.0,53.0,1010.1
2017-05-15T18:52:00.000Z,86.0,49.0,1009.5
2017-05-15T19:52:00.000Z,89.0,45.0,1009.1
2017-05-15T20:52:00.000Z,88.0,46.0,1008.7
2017-05-15T21:52:00.000Z,88.0,48.0,1007.9
2017-05-15T22:52:00.000Z,89.0,39.0,1007.1
2017-05-15T23:52:00.000Z,87.0,40.0,1006.4
2017-05-16T00:52:00.000Z,84.0,43.0,1008.0
2017-05-16T01:52:00.000Z,79.0,52.0,1007.7
2017-05-16T02:52:00.000Z,78.0,58.0,1009.2
2017-05-16T03:52:00.000Z,78.0,56.0,1009.2
2017-05-16T04:52:00.000Z,73.0,64.0,1009.0
2017-05-16T05:52:00.000Z,71.0,68.0,1008.0
2017-05-16T06:52:00.000Z,73.0,64.0,1007.6
2017-05-16T07:52:00.000Z,72.0,66.0,1007.8
2017-05-16T08:52:00.000Z,70.0,71.0,1008.6
2017-05-16T09:52:00.000Z,69.0,73.0,1007.9
2017-05-16T10:52:00.000Z,69.0,73.0,1007.5
2017-05-16T11:52:00.000Z,71.0,71.0,1007.3
2017-05-16T12:52:00.000Z,71.0,71.0,1007.3
2017-05-16T13:52:00.000Z,75.0,64.0,1006.7
2017-05-16T14:52:00.000Z,78.0,60.0,1005.9
2017-05-16T15:52:00.000Z,80.0,56.0,1006.2
2017-05-16T16:52:00.000Z,83.0,51.0,1005.7
2017-05-16T17:52:00.000Z,85.0,43.0,1005.1
2017-05-16T18:52:00.000Z,86.0,42.0,1005.0
2017-05-16T19:52:00.000Z,87.0,37.0,1004.2
2017-05-16T20:52:00.000Z,88.0,38.0,1003.4
2017-05-16T21:52:00.000Z,88.0,39.0,1003.1
2017-05-16T22:52:00.000Z,87.0,40.0,1002.6
2017-05-16T23:52:00.000Z,85.0,45.0,1002.1
2017-05-17T00:52:00.000Z,82.0,51.0,1002.2
2017-05-17T01:52:00.000Z,81.0,53.0,1002.8
2017-05-17T02:52:00.000Z,78.0,58.0,1002.6
2017-05-17T03:52:00.000Z,78.0,56.0,1002.9
2017-05-17T04:52:00.000Z,75.0,60.0,1002.7
2017-05-17T05:52:00.000Z,74.0,57.0,1002.5
2017-05-17T06:52:00.000Z,73.0,59.0,1002.4
2017-05-17T07:52:00.000Z,74.0,57.0,1002.8
2017-05-17T08:52:00.000Z,68.0,70.0,1003.0
2017-05-17T09:52:00.000Z,67.0,76.0,1002.5
2017-05-17T10:52:00.000Z,67.0,76.0,1002.4
2017-05-17T11:52:00.000Z,67.0,76.0,1002.1
2017-05-17T12:52:00.000Z,68.0,84.0,1002.4
2017-05-17T13:52:00.000Z,72.0,79.0,1002.0
2017-05-17T14:52:00.000Z,75.0,69.0,1001.4
2017-05-17T15:52:00.000Z,77.0,64.0,1000.1
2017-05-17T16:52:00.000Z,78.0,60.0,1000.1
2017-05-17T17:52:00.000Z,79.0,56.0,999.3
2017-05-17T18:52:00.000Z,82.0,51.0,998.2
2017-05-17T19:52:00.000Z,80.0,52.0,998.2
2017-05-17T20:52:00.000Z,82.0,49.0,997.2
2017-05-17T21:52:00.000Z,78.0,52.0,997.0
2017-05-17T22:52:00.000Z,76.0,56.0,995.4
2017-05-17T23:52:00.000Z,63.0,90.0,997.8
2017-05-18T00:52:00.000Z,67.0,87.0,997.9
2017-05-18T01:52:00.000Z,66.0,87.0,998.4
2017-05-18T02:52:00.000Z,66.0,84.0,999.1
2017-05-18T03:52:00.000Z,62.0,93.0,999.7
2017-05-18T04:52:00.000Z,63.0,90.0,1000.2
2017-05-18T05:52:00.000Z,64.0,90.0,1000.3
2017-05-18T06:52:00.000Z,65.0,81.0,1000.5
2017-05-18T07:52:00.000Z,66.0,70.0,1001.5
2017-05-18T08:52:00.000Z,66.0,70.0,1002.2
2017-05-18T09:52:00.000Z,64.0,75.0,1003.2
2017-05-18T10:52:00.000Z,63.0,78.0,1004.3
2017-05-18T11:52:00.000Z,62.0,75.0,1005.8
2017-05-18T12:52:00.000Z,63.0,73.0,1006.6
2017-05-18T13:52:00.000Z,63.0,76.0,1008.3
2017-05-18T14:52:00.000Z,63.0,73.0,1009.5
2017-05-18T15:52:00.000Z,65.0,70.0,1010.2
2017-05-18T16:52:00.000Z,67.0,68.0,1011.0
2017-05-18T17:52:00.000Z,67.0,68.0,1011.3
2017-05-18T18:52:00.000Z,68.0,68.0,1011.6
2017-05-18T19:52:00.000Z,69.0,66.0,1011.8
2017-05-18T20:52:00.000Z,70.0,61.0,1012.4
2017-05-18T21:52:00.000Z,68.0,63.0,1013.3
2017-05-18T22:52:00.000Z,67.0,61.0,1013.4
2017-05-18T23:52:00.000Z,66.0,63.0,1013.0
2017-05-19T00:52:00.000Z,63.0,65.0,1014.6
2017-05-19T01:52:00.000Z,61.0,70.0,1015.3
2017-05-19T02:52:00.000Z,60.0,75.0,1014.9
2017-05-19T03:52:00.000Z,59.0,72.0,1015.6
2017-05-19T04:52:00.000Z,59.0,72.0,1015.7
2017-05-19T05:52:00.000Z,58.0,72.0,1015.3
2017-05-19T06:52:00.000Z,56.0,75.0,1015.4
2017-05-19T07:52:00.000Z,57.0,72.0,1017.5
2017-05-19T08:52:00.000Z,53.0,83.0,1017.7
2017-05-19T09:52:00.000Z,51.0,89.0,1017.6
2017-05-19T10:52:00.000Z,50.0,93.0,1016.4
2017-05-19T11:52:00.000Z,51.0,86.0,1017.1
2017-05-19T12:52:00.000Z,50.0,89.0,1017.2
2017-05-19T13:52:00.000Z,50.0,86.0,1017.4
2017-05-19T14:52:00.000Z,49.0,86.0,1018.2
2017-05-19T15:52:00.000Z,49.0,90.0,1018.3
2017-05-19T16:52:00.000Z,49.0,86.0,1018.8
2017-05-19T17:52:00.000Z,49.0,83.0,1019.4
2017-05-19T18:52:00.000Z,50.0,86.0,1018.9
2017-05-19T19:52:00.000Z,51.0,80.0,1018.8
2017-05-19T20:52:00.000Z,52.0,77.0,1019.5
2017-05-19T21:52:00.000Z,52.0,77.0,1019.4
2017-05-19T22:52:00.000Z,51.0,83.0,1019.7
2017-05-19T23:52:00.000Z,51.0,80.0,1019.7
2017-05-20T00:52:00.000Z,51.0,80.0,1019.6
2017-05-20T01:52:00.000Z,50.0,83.0,1019.1
2017-05-20T02:52:00.000Z,50.0,83.0,1019.9
2017-05-20T03:52:00.000Z,49.0,86.0,1020.7
2017-05-20T04:52:00.000Z,48.0,89.0,1018.9
2017-05-20T05:52:00.000Z,49.0,86.0,1017.5
2017-05-20T06:52:00.000Z,48.0,86.0,1017.6
2017-05-20T07:52:00.000Z,48.0,86.0,1016.3
2017-05-20T08:52:00.000Z,48.0,86.0,1015.8
2017-05-20T09:52:00.000Z,49.0,86.0,1015.8
2017-05-20T10:52:00.000Z,49.0,90.0,1015.6
2017-05-20T11:52:00.000Z,50.0,89.0,1015.6
2017-05-20T12:52:00.000Z,50.0,93.0,1014.7
2017-05-20T13:52:00.000Z,50.0,89.0,1012.7
2017-05-20T14:52:00.000Z,50.0,89.0,1013.0
2017-05-20T15:52:00.000Z,50.0,89.0,1013.6
2017-05-20T16:52:00.000Z,52.0,93.0,1013.2
2017-05-20T17:52:00.000Z,54.0,93.0,1012.3
2017-05-20T18:52:00.000Z,56.0,90.0,1011.9
2017-05-20T19:52:00.000Z,57.0,93.0,1011.5
2017-05-20T20:52:00.000Z,60.0,86.0,1010.7
2017-05-20T21:52:00.000Z,62.0,86.0,1010.0
2017-05-20T22:52:00.000Z,63.0,87.0,1009.9
2017-05-20T23:52:00.000Z,67.0,81.0,1009.5
2017-05-21T00:52:00.000Z,67.0,84.0,1009.2
2017-05-21T01:52:00.000Z,65.0,78.0,1010.7
2017-05-21T02:52:00.000Z,63.0,70.0,1011.2
2017-05-21T03:52:00.000Z,61.0,65.0,1012.0
2017-05-21T04:52:00.000Z,59.0,69.0,1012.0
2017-05-21T05:52:00.000Z,56.0,77.0,1012.4
2017-05-21T06:52:00.000Z,54.0,80.0,1012.5
2017-05-21T07:52:00.000Z,52.0,83.0,1012.4
2017-05-21T08:52:00.000Z,52.0,77.0,1012.4
2017-05-21T09:52:00.000Z,52.0,77.0,1012.4
2017-05-21T10:52:00.000Z,52.0,75.0,1013.1
2017-05-21T11:52:00.000Z,51.0,77.0,1013.5
2017-05-21T12:52:00.000Z,52.0,77.0,1014.1
2017-05-21T13:52:00.000Z,52.0,72.0,1014.6
2017-05-21T14:52:00.000Z,52.0,69.0,1015.1
2017-05-21T15:52:00.000Z,52.0,72.0,1015.5
2017-05-21T16:52:00.000Z,51.0,66.0,1016.4
2017-05-21T17:52:00.000Z,51.0,66.0,1016.8
2017-05-21T18:52:00.000Z,51.0,66.0,1017.0
2017-05-21T19:52:00.000Z,53.0,61.0,1017.1
2017-05-21T20:52:00.000Z,54.0,59.0,1017.2
2017-05-21T21:52:00.000Z,54.0,62.0,1017.5
2017-05-21T22:52:00.000Z,54.0,59.0,1017.6
2017-05-21T23:52:00.000Z,54.0,62.0,1017.4
2017-05-22T00:52:00.000Z,54.0,64.0,1017.7
2017-05-22T01:52:00.000Z,53.0,69.0,1018.2
2017-05-22T02:52:00.000Z,53.0,69.0,1018.8
2017-05-22T03:52:00.000Z,51.0,74.0,1018.9
2017-05-22T04:52:00.000Z,50.0,77.0,1018.7
2017-05-22T05:52:00.000Z,48.0,83.0,1017.9
2017-05-22T06:52:00.000Z,47.0,83.0,1017.7
2017-05-22T07:52:00.000Z,46.0,86.0,1017.5
2017-05-22T08:52:00.000Z,44.0,89.0,1017.3
2017-05-22T09:52:00.000Z,42.0,89.0,1016.8
2017-05-22T10:52:00.000Z,45.0,90.0,1016.3
2017-05-22T11:52:00.000Z,48.0,86.0,1016.6
2017-05-22T12:52:00.000Z,53.0,74.0,1016.5
2017-05-22T13:52:00.000Z,57.0,67.0,1016.0
2017-05-22T14:52:00.000Z,64.0,56.0,1015.1
2017-05-22T15:52:00.000Z,69.0,49.0,1014.0
2017-05-22T16:52:00.000Z,70.0,49.0,1013.3
2017-05-22T17:52:00.000Z,70.0,53.0,1013.3
2017-05-22T18:52:00.000Z,72.0,55.0,1012.6
2017-05-22T19:52:00.000Z,71.0,57.0,1012.7
2017-05-22T20:52:00.000Z,67.0,63.0,1012.6
2017-05-22T21:52:00.000Z,66.0,70.0,1012.0
2017-05-22T22:52:00.000Z,66.0,70.0,1011.5
2017-05-22T23:52:00.000Z,65.0,73.0,1011.2
2017-05-23T00:52:00.000Z,64.0,73.0,1011.2
2017-05-23T01:52:00.000Z,63.0,76.0,1011.5
2017-05-23T02:52:00.000Z,61.0,78.0,1011.5
2017-05-23T03:52:00.000Z,60.0,78.0,1011.0
2017-05-23T04:52:00.000Z,58.0,81.0,1010.7
2017-05-23T05:52:00.000Z,56.0,84.0,1010.7
2017-05-23T06:52:00.000Z,55.0,87.0,1009.8
2017-05-23T07:52:00.000Z,55.0,83.0,1009.5
2017-05-23T08:52:00.000Z,54.0,87.0,1009.4
2017-05-23T09:52:00.000Z,53.0,89.0,1009.1
2017-05-23T10:52:00.000Z,52.0,93.0,1009.3
2017-05-23T11:52:00.000Z,53.0,89.0,1009.4
2017-05-23T12:52:00.000Z,55.0,87.0,1009.4
2017-05-23T13:52:00.000Z,58.0,78.0,1009.0
2017-05-23T14:52:00.000Z,58.0,78.0,1009.2
2017-05-23T15:52:00.000Z,59.0,75.0,1009.1
2017-05-23T16:52:00.000Z,60.0,70.0,1008.8
2017-05-23T17:52:00.000Z,61.0,65.0,1008.1
2017-05-23T18:52:00.000Z,65.0,61.0,1007.3
2017-05-23T19:52:00.000Z,63.0,58.0,1006.8
2017-05-23T20:52:00.000Z,63.0,58.0,1006.7
2017-05-23T21:52:00.000Z,60.0,65.0,1007.0
2017-05-23T22:52:00.000Z,59.0,64.0,1007.1
2017-05-23T23:52:00.000Z,59.0,69.0,1006.8
2017-05-24T00:52:00.000Z,58.0,70.0,1006.6
2017-05-24T01:52:00.000Z,55.0,77.0,1006.6
2017-05-24T02:52:00.000Z,53.0,86.0,1006.7
2017-05-24T03:52:00.000Z,52.0,86.0,1006.3
2017-05-24T04:52:00.000Z,51.0,86.0,1005.8
2017-05-24T05:52:00.000Z,50.0,89.0,1005.3
2017-05-24T06:52:00.000Z,49.0,90.0,1004.7
2017-05-24T07:52:00.000Z,51.0,86.0,1004.5
2017-05-24T08:52:00.000Z,50.0,89.0,1004.2
2017-05-24T09:52:00.000Z,50.0,89.0,1004.1
2017-05-24T10:52:00.000Z,51.0,89.0,1004.0
2017-05-24T11:52:00.000Z,53.0,86.0,1004.0
2017-05-24T12:52:00.000Z,55.0,87.0,1003.9
2017-05-24T13:52:00.000Z,56.0,87.0,1004.1
2017-05-24T14:52:00.000Z,59.0,78.0,1004.1
2017-05-24T15:52:00.000Z,59.0,78.0,1004.0
2017-05-24T16:52:00.000Z,59.0,72.0,1004.1
2017-05-24T17:52:00.000Z,60.0,70.0,1004.1
2017-05-24T18:52:00.000Z,61.0,67.0,1003.9
2017-05-24T19:52:00.000Z,62.0,65.0,1003.8
2017-05-24T20:52:00.000Z,62.0,65.0,1004.0
2017-05-24T21:52:00.000Z,65.0,59.0,1003.7
2017-05-24T22:52:00.000Z,65.0,56.0,1003.6